Regional Weather Roundup
Issued by NWS

Home | Current Version | Previous Version | Graphics & Text | Print | Product List | Glossary On
Versions: 1 2 3 4 5 6 7 8 9 10 11 12 13 14 15 16 17 18 19 20 21 22 23 24 25 26 27 28 29 30 31 32 33 34 35 36 37 38 39 40 41 42 43 44 45 46 47 48 49 50
000
ASUS44 KMEG 011810
RWRTN
TENNESSEE HOURLY STATE WEATHER ROUNDUP
NATIONAL WEATHER SERVICE MEMPHIS TN
100 PM CDT FRI AUG 01 2014

TNZ002-004-019-021-049-052-054-088>092-011900-
WEST TENNESSEE

CITY           SKY/WX    TMP DP  RH WIND       PRES   REMARKS
MEMPHIS INTL   CLOUDY    83  63  50 NE7       30.05F
NWS MEMPHIS      N/A     80 N/A N/A MISG        N/A
JACKSON        PTSUNNY   83  65  54 N5        30.07F
DYERSBURG      SUNNY     81  61  50 E5        30.08F
UNION CITY     PTSUNNY   75  66  73 NW3       30.07F
PARIS          SUNNY     80  61  52 CALM      30.08F
LEXINGTON      SUNNY     81  61  50 VRB6      30.06F
SAVANNAH       MOSUNNY   87  65  47 NE5       30.06F
$$

TNZ008-025-027-028-033-062-065-066-011900-
NORTH MIDDLE TENNESSEE

CITY           SKY/WX    TMP DP  RH WIND       PRES   REMARKS
NASHVILLE      PTSUNNY   87  62  43 E7        30.07F
DICKSON        SUNNY     82  57  42 VRB7      30.08F
PORTLAND       SUNNY     84  59  42 E6        30.07F
CLARKSVILLE    MOSUNNY   86  54  33 E9        30.07F
LEBANON        MOSUNNY   84  60  44 E7        30.06F
SMYRNA         SUNNY     91  65  42 VRB6      30.07F HX  93
MURFREESBORO   SUNNY     82  62  50 CALM      30.06
COOKEVILLE     MOSUNNY   82  66  57 E6        30.08F
LIVINGSTON       N/A     81  59  47 N5        30.10
GALLATIN       PTSUNNY   85  61  44 VRB6      30.08F
CROSSVILLE     PTSUNNY   77  62  59 VRB3      30.12F
$$

TNZ061-075-076-078-094-096-097-011900-
SOUTH MIDDLE TENNESSEE

CITY           SKY/WX    TMP DP  RH WIND       PRES   REMARKS
LEWISBURG      SUNNY     84  61  45 E5        30.06F
FAYETTEVILLE   MOSUNNY   81  63  54 E8        30.07F
TULLAHOMA      MOSUNNY   81  64  57 S3        30.09S
WINCHESTER     MOSUNNY   82  64  54 VRB5      30.08S
MCMINNVILLE    SUNNY     82  68  61 NE6       30.09S
COLUMBIA       PTSUNNY   82  64  54 E5        30.06S
SHELBYVILLE    MOSUNNY   84  66  54 VRB5      30.08F
$$

TNZ017-018-042-046-047-011900-
NORTHEAST TENNESSEE

CITY           SKY/WX    TMP DP  RH WIND       PRES   REMARKS
TRI CITIES     PTSUNNY   79  60  52 S7        30.13F
ELIZABETHTON   PTCLDY    72  61  68 E9        30.15F
$$

TNZ012-013-036-069-073-074-011900-
CENTRAL EAST TENNESSEE

CITY           SKY/WX    TMP DP  RH WIND       PRES   REMARKS
KNOXVILLE      PTSUNNY   80  64  58 NE8       30.07F
OAK RIDGE      PTSUNNY   82  63  52 E6        30.09F
GATLINBURG     CLEAR     82  63  51 VRB3      30.07F
MORRISTOWN     CLEAR     79  63  57 NE6       30.11F
$$

TNZ083-085-099-011900-
SOUTHEAST TENNESSEE

CITY           SKY/WX    TMP DP  RH WIND       PRES   REMARKS
CHATTANOOGA    PTSUNNY   84  64  50 VRB3      30.07F
$$

SKY/WX REPORTED AS FAIR MEANS FEW OR NO CLOUDS BELOW
12 THOUSAND FEET.



USA.gov is the U.S. government's official web portal to all federal, state and local government web resources and services.